Terminal Aerodrome Forecast
Issued by NWS Duluth, MN

Home | Current Version | Previous Version | Text Only | Print | Product List | Glossary On
Versions: 1 2 3 4 5 6 7 8 9 10 11 12 13 14 15 16 17 18 19 20 21 22 23 24 25 26 27 28 29 30 31 32
000
FTUS43 KDLH 290800 AAA
TAFDLH
TAF AMD
KDLH 290817Z 2908/3006 VRB03KT 6SM BR FEW002 SCT120 WS020/21040KT
     FM291000 18003KT 2SM BR SCT002 SCT120 WS020/21035KT
     FM291300 23005KT P6SM SCT120
     FM291600 30007KT 6SM -SHRA BR BKN025 OVC035
     FM292000 34012G19KT P6SM -SHRA BKN035 OVC050
     FM300000 35011KT P6SM FEW050=

USA.gov is the U.S. government's official web portal to all federal, state and local government web resources and services.